Home   Weather   Florianópolis   Past weeks

Flag for Brazil Past Weather in Florianópolis, Santa Catarina, Brazil — Yesterday and Last 2 Weeks

Now
64 °F

Passing clouds.


Feels Like: 64 °F
Forecast: 59 / 75 °F
Wind: 3 mph from Northwest

Location: Florianopolis Aeroporto

Current Time: Apr 24, 2017 at 2:52:53 am

Latest Report: Apr 24, 2017 at 2:00 am


Visibility: N/A

Pressure: 30.12 "Hg

Humidity: 88%

Dew Point: 61 °F

Location of FlorianópolisLocation

Past Weather in Florianópolis — Graph

°F

Florianópolis Temperature Yesterday

Maximum temperature yesterday: 77 °F (at 1:00 pm)
Minimum temperature yesterday: 59 °F (at 7:00 am)
Average temperature yesterday: 67 °F

High & Low Weather Summary for the Past Weeks

 TemperatureHumidityPressure
High82 °F (Apr 9, 12:00 pm)100% (Apr 15, 9:00 pm)30.18 "Hg (Apr 15, 9:00 pm)
Low36 °F (Apr 15, 9:00 pm)39% (Apr 22, 1:00 pm)29.74 "Hg (Apr 21, 1:00 pm)
Average72 °F77%30.03 "Hg
* Reported Apr 9 1:00 am — Apr 24 1:00 am, Florianópolis, Weather by CustomWeather, © 2017

Note: Actual official high and low records may vary slightly from our data, if they occured in-between our weather recording intervals... More about our weather records

Advertising

Florianópolis Weather History for the Previous 24 Hours

Scroll right to see more
 ConditionsComfort  
Time TempWeatherWind HumidityBarometerVisibility
1:00 am
Mon, Apr 24
66 °FPassing clouds.5 mph73%30.12 "HgN/A
12:00 am64 °FClear.No wind88%30.12 "Hg10 mi
11:00 pm
Sun, Apr 23
64 °FClear.No wind88%30.12 "Hg10 mi
10:00 pm68 °FClear.No wind78%30.15 "Hg10 mi
9:00 pm68 °FPassing clouds.5 mph78%30.15 "HgN/A
8:00 pm68 °FPassing clouds.2 mph73%30.15 "HgN/A
7:00 pm70 °FPassing clouds.3 mph73%30.12 "HgN/A
6:00 pm68 °FPassing clouds.6 mph78%30.09 "HgN/A
5:00 pm70 °FPassing clouds.10 mph64%30.09 "HgN/A
4:00 pm73 °FSunny.10 mph57%30.09 "Hg10 mi
3:00 pm75 °FPassing clouds.9 mph47%30.09 "HgN/A
2:00 pm75 °FPassing clouds.5 mph47%30.09 "HgN/A
1:00 pm77 °FPassing clouds.6 mph39%30.12 "HgN/A
12:00 pm75 °FSunny.2 mph47%30.15 "Hg10 mi
11:00 am70 °FSunny.5 mph53%30.18 "Hg10 mi
10:00 am68 °FSunny.5 mph60%30.18 "Hg10 mi
9:00 am64 °FSunny.8 mph68%30.18 "Hg10 mi
8:00 am63 °FSunny.5 mph77%30.15 "Hg10 mi
7:00 am59 °FSunny.No wind82%30.12 "Hg10 mi
6:00 am61 °FClear.5 mph72%30.12 "Hg10 mi
5:00 am61 °FClear.6 mph72%30.12 "Hg10 mi
4:00 am63 °FClear.No wind73%30.12 "Hg10 mi
3:00 am63 °FClear.No wind77%30.12 "Hg10 mi
2:00 am63 °FClear.6 mph77%30.12 "Hg10 mi
Weather by CustomWeather, © 2017

See weather overviewHow to use our weather pages